Home > Time Zones > World Clock > Weather > Japan > Tokyo > Past weeks

Flag for Japan Weather past 2 weeks in Tokyo, Japan

Now
41 °F

Quite cool.


Feels Like: 36 °F
Forecast: 38 / 49 °F
Wind: 8 mph from Northwest

Location: Tokyo

Current Time: Dec 22, 2014 at 6:34:50 AM

Latest Report: Dec 22, 2014 at 5:00 AM


Visibility: N/A

Pressure: 29.82 "Hg

Humidity: 58%

Dew point: 27 °F

Location of TokyoLocation

Historic Weather in Tokyo — Graph

°F

Tokyo temperature yesterday

Maximum temperature yesterday: 54 °F (at 3:00 PM)
Minimum temperature yesterday: 42 °F (at 7:00 AM)
Average temperature yesterday: 48 °F

Past Weeks' High & Low Weather Summary

 TemperatureHumidityPressure
High61 °F (Dec 11, 2:00 PM)97% (Dec 17, 1:00 AM)30.45 "Hg (Dec 17, 1:00 AM)
Low31 °F (Dec 18, 6:00 AM)19% (Dec 18, 1:00 PM)29.29 "Hg (Dec 16, 8:00 PM)
Average43 °F55%30.01 "Hg
* Reported Dec 7 5:00 AM — Dec 22 5:00 AM, Tokyo, Weather by CustomWeather, © 2014

Note: Actual official high and low records may vary slightly from our data, if they occured in-between our weather recording intervals... More about our weather records

Advertising

Tokyo weather history for previous 24 hours

 ConditionsComfort  
Time TempWeatherWind HumidityBarometerVisibility
5:00 AM
Dec 22
41 °FQuite cool.8 mph58%29.82 "HgN/A
4:00 AM44 °FQuite cool.6 mph72%29.80 "HgN/A
3:00 AM42 °FPassing clouds.3 mph63%29.77 "Hg19 mi
2:00 AM44 °FQuite cool.2 mph83%29.78 "HgN/A
1:00 AM45 °FCool.3 mph81%29.77 "HgN/A
12:00 AM44 °FQuite cool.2 mph83%29.77 "HgN/A
11:00 PM
Dec 21
44 °FQuite cool.2 mph83%29.77 "HgN/A
10:00 PM46 °FCool.7 mph78%29.75 "HgN/A
9:00 PM46 °FOvercast.3 mph76%29.77 "Hg19 mi
8:00 PM48 °FCool.5 mph70%29.78 "HgN/A
7:00 PM48 °FCool.5 mph59%29.76 "HgN/A
6:00 PM47 °FOvercast.2 mph54%29.79 "Hg19 mi
5:00 PM49 °FCool.3 mph51%29.77 "HgN/A
4:00 PM51 °FCool.5 mph48%29.77 "HgN/A
3:00 PM54 °FOvercast.5 mph42%29.76 "Hg19 mi
2:00 PM53 °FCool.2 mph40%29.78 "HgN/A
1:00 PM53 °FCool.3 mph45%29.76 "HgN/A
12:00 PM51 °FOvercast.5 mph49%29.80 "Hg16 mi
11:00 AM51 °FCool.2 mph51%29.84 "HgN/A
10:00 AM51 °FCool.5 mph51%29.83 "HgN/A
9:00 AM49 °FPartly sunny.2 mph65%29.85 "Hg19 mi
8:00 AM45 °FQuite cool.5 mph73%29.83 "HgN/A
7:00 AM42 °FQuite cool.6 mph78%29.82 "HgN/A
6:00 AM43 °FPassing clouds.5 mph83%29.80 "Hg19 mi
Weather by CustomWeather, © 2014

See weather overviewHow to use our weather pages